Powrót do katalogu

FENGYUN 1C DEB

AktywnySSO
NORAD 33726·DEBRIS·🇨🇳 China

Wystrzelony May 10, 1999 z Taiyuan Satellite Launch Center

Loading…

Następne Przeloty (najbliższe 24 godziny)

TLE

ŚwieżeSource: Space-Track

Epoka: Sep 14, 2026, 04:58 UTC

1 33726U 99025DHP 26257.20699402  .00000375  00000-0  18284-3 0  9991
2 33726  98.6693  18.1214 0190580 322.6996 153.9417 14.14768545958266

Śledź FENGYUN 1C DEB w czasie rzeczywistym z AllMySat

Download on the App Store